Point Salines, Grenada

7:48 AM AST on May 25, 2017 (GMT -0400)
Point Salines International

Weather History for TGPY - January, 2013

Change the Weather History Date:

Wednesday, January 23, 2013

  Actual Average Record
Temperature  
Mean Temperature 81 °F -  
Max Temperature 85 °F 83 °F 86 °F (1997)
Min Temperature 77 °F 73 °F 72 °F (2017)
Cooling Degree Days 16    
Growing Degree Days 31 (Base 50)    
Moisture  
Dew Point 74 °F    
Average Humidity 81    
Maximum Humidity 89    
Minimum Humidity 69    
Precipitation  
Precipitation 0.08 in - - ()
Sea Level Pressure  
Sea Level Pressure 29.99 in    
Wind  
Wind Speed 12 mph ()    
Max Wind Speed 20 mph    
Max Gust Speed 30 mph    
Visibility 7.4 miles    
Events Rain    
Averages and records for this station are not official NWS values.
T = Trace of Precipitation, MM = Missing Value Source: Averaged Metar Reports

Daily Weather History Graph

Daily Weather History Graph

Search for Another Location

Airport or City:

Trip Planner

Search our weather history database for the weather conditions in past years. The results will help you decide how hot, cold, wet, or windy it might be!

Date:

Astronomy

Jan. 23, 2013 Rise Set
Actual Time 6:32 AM AST 6:05 PM AST
Civil Twilight 6:10 AM AST 6:28 PM AST
Nautical Twilight 5:44 AM AST 6:53 PM AST
Astronomical Twilight 5:18 AM AST 7:19 PM AST
Moon 3:19 PM AST (1/23) 3:32 AM AST (1/23)
Length of Visible Light 12h 17m
Length of Day
11h 33m
Waxing Gibbous, 89% of the Moon is Illuminated
Jan 23
Waxing Gibbous
Jan 27
Full
Feb 3
Last Quarter
Feb 10
New
Feb 17
First Quarter

Hourly Weather History & Observations

Time (AST) Temp. Heat Index Dew Point Humidity Pressure Visibility Wind Dir Wind Speed Gust Speed Precip Events Conditions
12:00 AM 78.8 °F - 73.4 °F 83% 29.98 in 6.2 mi East 16.1 mph - N/A   Scattered Clouds
1:00 AM 78.8 °F - 73.4 °F 83% 29.98 in 6.2 mi East 13.8 mph - N/A   Scattered Clouds
2:00 AM 78 °F - 73 °F 79% 29.96 in 11 mi East 1.2 mph - -   Widespread Dust
2:00 AM 78.8 °F - 73.4 °F 83% 29.95 in 6.2 mi East 16.1 mph - N/A   Partly Cloudy
3:00 AM 78.8 °F - 71.6 °F 78% 29.95 in 6.2 mi East 13.8 mph - N/A   Partly Cloudy
4:00 AM 77.0 °F - 73.4 °F 89% 29.95 in 6.2 mi East 15.0 mph - N/A   Scattered Clouds
5:00 AM 77.0 °F - 73.4 °F 89% 29.98 in 6.2 mi ESE 17.3 mph 29.9 mph N/A   Scattered Clouds
6:00 AM 77.0 °F - 73.4 °F 89% 29.98 in 6.2 mi ESE 11.5 mph - N/A   Mostly Cloudy
7:00 AM 77.0 °F - 73.4 °F 89% 30.01 in 5.6 mi East 12.7 mph - N/A   Scattered Clouds
8:00 AM 78.8 °F - 73.4 °F 83% 30.04 in 6.2 mi East 11.5 mph - N/A Rain Rain Showers
9:00 AM 78.8 °F - 75.2 °F 89% 30.06 in 6.2 mi East 13.8 mph - N/A   Scattered Clouds
10:00 AM 78.8 °F - 75.2 °F 89% 30.06 in 6.2 mi East 11.5 mph - N/A   Scattered Clouds
11:00 AM 80.6 °F 86.2 °F 75.2 °F 84% 30.04 in 6.2 mi ESE 17.3 mph - N/A   Scattered Clouds
12:00 PM 84.2 °F 92.3 °F 75.2 °F 74% 30.04 in 6.2 mi East 19.6 mph - N/A   Scattered Clouds
1:00 PM 82.4 °F 88.2 °F 73.4 °F 74% 30.01 in 6.2 mi ESE 17.3 mph - N/A   Partly Cloudy
2:00 PM 82 °F - 74 °F 69% 29.97 in 16 mi ESE 18.4 mph - -   Partly Cloudy
2:00 PM 82.4 °F 88.2 °F 73.4 °F 74% 29.98 in 6.2 mi ESE 18.4 mph - N/A   Scattered Clouds
3:00 PM 84.2 °F 90.9 °F 73.4 °F 70% 29.95 in 6.2 mi East 18.4 mph - N/A   Partly Cloudy
4:00 PM 82.4 °F 88.2 °F 73.4 °F 74% 29.95 in 6.2 mi ESE 15.0 mph - N/A   Scattered Clouds
5:00 PM 82 °F - 74 °F 70% 29.96 in 17 mi ESE 11.5 mph - -   Widespread Dust
5:00 PM 82.4 °F 88.2 °F 73.4 °F 74% 29.95 in 6.2 mi ESE 11.5 mph - N/A   Partly Cloudy
6:00 PM 80.6 °F 85.4 °F 73.4 °F 79% 29.95 in 6.2 mi East 9.2 mph - N/A   Partly Cloudy
7:00 PM 78.8 °F - 73.4 °F 83% 29.98 in 6.2 mi East 9.2 mph - N/A   Partly Cloudy
8:00 PM 78 °F - 73 °F 82% 30.00 in 16 mi East 9.2 mph - -   Scattered Clouds
8:00 PM 78.8 °F - 73.4 °F 83% 29.98 in 6.2 mi East 9.2 mph - N/A   Partly Cloudy
9:00 PM 77.0 °F - 73.4 °F 89% 30.01 in 6.2 mi East 9.2 mph - N/A Rain Light Rain Showers
10:00 PM 77.0 °F - 73.4 °F 89% 30.01 in 5.0 mi East 9.2 mph - N/A   Scattered Clouds
11:00 PM 77 °F - 74 °F 87% 30.02 in 7 mi East 10.4 mph - -   Partly Cloudy